Previsão horária em Al Hilla

Hoje, 27 Janeiro, Quarta-feira

Tempo Temperatura Precipitação Vento Pressão Humidade
00:00 +14°C° 0 mm 2 m/s 763 mmHg 27%
01:00 +13°C° 0 mm 2 m/s 762 mmHg 28%
02:00 +12°C° 0 mm 2 m/s 762 mmHg 28%
03:00 +12°C° 0 mm 1 m/s 762 mmHg 29%
04:00 +11°C° 0 mm 1 m/s 762 mmHg 31%
05:00 +10°C° 0 mm 1 m/s 762 mmHg 32%
06:00 +10°C° 0 mm 1 m/s 762 mmHg 34%
07:00 +11°C° 0 mm 0 m/s 762 mmHg 30%
08:00 +13°C° 0 mm 0 m/s 762 mmHg 26%
09:00 +15°C° 0 mm 0 m/s 762 mmHg 22%
10:00 +16°C° 0 mm 0 m/s 762 mmHg 20%
11:00 +17°C° 0 mm 0 m/s 762 mmHg 19%
12:00 +19°C° 0 mm 0 m/s 762 mmHg 17%
13:00 +21°C° 0 mm 1 m/s 761 mmHg 16%
14:00 +21°C° 0 mm 2 m/s 760 mmHg 16%
15:00 +23°C° 0 mm 2 m/s 760 mmHg 15%
16:00 +21°C° 0 mm 3 m/s 759 mmHg 17%
17:00 +20°C° 0 mm 3 m/s 759 mmHg 18%
18:00 +19°C° 0 mm 4 m/s 759 mmHg 20%
19:00 +18°C° 0 mm 4 m/s 759 mmHg 21%
20:00 +18°C° 0 mm 4 m/s 759 mmHg 22%
21:00 +17°C° 0 mm 4 m/s 759 mmHg 23%
22:00 +16°C° 0 mm 5 m/s 758 mmHg 23%
23:00 +16°C° 0 mm 5 m/s 758 mmHg 24%

Amanhã, 28 Janeiro, Quinta-feira

Tempo Temperatura Precipitação Vento Pressão Humidade
00:00 +16°C° 0 mm 6 m/s 758 mmHg 24%
01:00 +16°C° 0 mm 6 m/s 757 mmHg 23%
02:00 +16°C° 0 mm 7 m/s 757 mmHg 23%
03:00 +16°C° 0 mm 8 m/s 756 mmHg 22%
04:00 +16°C° 0 mm 8 m/s 756 mmHg 22%
05:00 +17°C° 0 mm 8 m/s 756 mmHg 22%
06:00 +17°C° 0 mm 8 m/s 756 mmHg 23%
07:00 +17°C° 0 mm 9 m/s 756 mmHg 23%
08:00 +18°C° 0 mm 10 m/s 755 mmHg 23%
09:00 +19°C° 0 mm 11 m/s 755 mmHg 23%
10:00 +21°C° 0 mm 11 m/s 755 mmHg 23%
11:00 +22°C° 0 mm 10 m/s 755 mmHg 23%
12:00 +24°C° 0 mm 9 m/s 755 mmHg 22%
13:00 +26°C° 0 mm 8 m/s 755 mmHg 23%
14:00 +26°C° 0 mm 7 m/s 754 mmHg 23%
15:00 +27°C° 0 mm 6 m/s 754 mmHg 23%
16:00 +24°C° 0 mm 6 m/s 754 mmHg 27%
17:00 +22°C° 0 mm 6 m/s 755 mmHg 31%
18:00 +20°C° 0 mm 6 m/s 755 mmHg 35%
19:00 +19°C° 0 mm 5 m/s 756 mmHg 36%
20:00 +18°C° 0 mm 4 m/s 756 mmHg 37%
21:00 +18°C° 0 mm 4 m/s 757 mmHg 38%
22:00 +17°C° 0 mm 4 m/s 757 mmHg 40%
23:00 +17°C° 0 mm 4 m/s 758 mmHg 41%

Depois de amanhã, 29 Janeiro, Sexta-feira

Tempo Temperatura Precipitação Vento Pressão Humidade
00:00 +15°C° 0 mm 4 m/s 758 mmHg 43%
01:00 +14°C° 0 mm 4 m/s 758 mmHg 45%
02:00 +14°C° 0 mm 4 m/s 758 mmHg 46%
03:00 +13°C° 0 mm 4 m/s 758 mmHg 48%
04:00 +13°C° 0 mm 3 m/s 758 mmHg 49%
05:00 +13°C° 0 mm 3 m/s 758 mmHg 50%
06:00 +12°C° 0 mm 3 m/s 758 mmHg 51%
07:00 +13°C° 0 mm 3 m/s 758 mmHg 48%
08:00 +16°C° 0 mm 3 m/s 758 mmHg 45%
09:00 +17°C° 0 mm 3 m/s 758 mmHg 42%
10:00 +19°C° 0 mm 3 m/s 757 mmHg 38%
11:00 +21°C° 0 mm 3 m/s 757 mmHg 33%
12:00 +22°C° 0 mm 3 m/s 756 mmHg 29%
13:00 +24°C° 0 mm 3 m/s 755 mmHg 28%
14:00 +25°C° 0 mm 4 m/s 755 mmHg 26%
15:00 +26°C° 0 mm 4 m/s 754 mmHg 25%
16:00 +23°C° 0.2 mm 4 m/s 754 mmHg 32%
17:00 +21°C° 0.2 mm 4 m/s 754 mmHg 38%
18:00 +20°C° 0.2 mm 4 m/s 754 mmHg 45%
19:00 +18°C° 0.5 mm 3 m/s 754 mmHg 48%
20:00 +17°C° 0.5 mm 3 m/s 754 mmHg 50%
21:00 +16°C° 0.5 mm 2 m/s 754 mmHg 53%
22:00 +16°C° 0 mm 3 m/s 754 mmHg 56%
23:00 +14°C° 0 mm 5 m/s 754 mmHg 59%

30 Janeiro, Sábado

Tempo Temperatura Precipitação Vento Pressão Humidade
00:00 +14°C° 0 mm 6 m/s 755 mmHg 63%
01:00 +12°C° 0 mm 7 m/s 755 mmHg 66%
02:00 +11°C° 0 mm 8 m/s 755 mmHg 70%
03:00 +11°C° 0 mm 8 m/s 756 mmHg 73%
04:00 +10°C° 0 mm 7 m/s 756 mmHg 73%
05:00 +10°C° 0 mm 7 m/s 757 mmHg 73%
06:00 +10°C° 0 mm 6 m/s 757 mmHg 74%
07:00 +11°C° 0 mm 6 m/s 758 mmHg 69%
08:00 +11°C° 0 mm 6 m/s 758 mmHg 65%
09:00 +13°C° 0 mm 6 m/s 759 mmHg 61%
10:00 +14°C° 0 mm 6 m/s 759 mmHg 55%
11:00 +15°C° 0 mm 6 m/s 759 mmHg 48%
12:00 +16°C° 0 mm 5 m/s 759 mmHg 42%
13:00 +17°C° 0 mm 6 m/s 759 mmHg 40%
14:00 +17°C° 0 mm 6 m/s 758 mmHg 37%
15:00 +17°C° 0 mm 6 m/s 758 mmHg 35%
16:00 +18°C° 0 mm 4 m/s 758 mmHg 38%
17:00 +17°C° 0 mm 3 m/s 759 mmHg 41%
18:00 +16°C° 0 mm 2 m/s 759 mmHg 44%
19:00 +15°C° 0 mm 2 m/s 759 mmHg 46%
20:00 +14°C° 0 mm 1 m/s 760 mmHg 49%
21:00 +12°C° 0 mm 0 m/s 760 mmHg 52%
22:00 +13°C° 0 mm 1 m/s 760 mmHg 51%
23:00 +13°C° 0 mm 1 m/s 761 mmHg 51%

31 Janeiro, Domingo

Tempo Temperatura Precipitação Vento Pressão Humidade
00:00 +13°C° 0 mm 1 m/s 761 mmHg 51%
01:00 +13°C° 0 mm 1 m/s 761 mmHg 51%
02:00 +12°C° 0 mm 1 m/s 761 mmHg 52%
03:00 +12°C° 0 mm 2 m/s 761 mmHg 53%
04:00 +12°C° 0 mm 2 m/s 761 mmHg 56%
05:00 +11°C° 0 mm 1 m/s 761 mmHg 59%
06:00 +11°C° 0 mm 1 m/s 761 mmHg 62%
07:00 +12°C° 0 mm 1 m/s 761 mmHg 59%
08:00 +14°C° 0 mm 1 m/s 762 mmHg 55%
09:00 +15°C° 0 mm 1 m/s 762 mmHg 52%
10:00 +16°C° 0 mm 2 m/s 762 mmHg 48%
11:00 +18°C° 0 mm 2 m/s 762 mmHg 43%
12:00 +19°C° 0 mm 2 m/s 762 mmHg 39%
13:00 +19°C° 0 mm 3 m/s 762 mmHg 37%
14:00 +20°C° 0 mm 3 m/s 762 mmHg 34%
15:00 +20°C° 0 mm 3 m/s 761 mmHg 31%
16:00 +19°C° 0 mm 2 m/s 761 mmHg 34%
17:00 +18°C° 0 mm 2 m/s 761 mmHg 36%
18:00 +17°C° 0 mm 2 m/s 762 mmHg 39%
19:00 +18°C° 0 mm 1 m/s 762 mmHg 40%
20:00 +16°C° 0 mm 1 m/s 762 mmHg 42%
21:00 +15°C° 0 mm 1 m/s 763 mmHg 43%
22:00 +15°C° 0 mm 1 m/s 763 mmHg 44%
23:00 +15°C° 0 mm 1 m/s 763 mmHg 44%

1 Fevereiro, Segunda-feira

Tempo Temperatura Precipitação Vento Pressão Humidade
00:00 +14°C° 0 mm 1 m/s 763 mmHg 45%
01:00 +14°C° 0 mm 1 m/s 763 mmHg 46%
02:00 +13°C° 0 mm 1 m/s 763 mmHg 47%
03:00 +13°C° 0 mm 1 m/s 763 mmHg 48%
04:00 +13°C° 0 mm 1 m/s 763 mmHg 49%
05:00 +12°C° 0 mm 1 m/s 763 mmHg 50%
06:00 +12°C° 0 mm 1 m/s 763 mmHg 51%
07:00 +14°C° 0 mm 1 m/s 764 mmHg 46%
08:00 +15°C° 0 mm 1 m/s 764 mmHg 40%
09:00 +18°C° 0 mm 1 m/s 765 mmHg 35%
10:00 +19°C° 0 mm 1 m/s 764 mmHg 32%
11:00 +21°C° 0 mm 1 m/s 764 mmHg 28%
12:00 +22°C° 0 mm 1 m/s 764 mmHg 25%
13:00 +22°C° 0 mm 1 m/s 764 mmHg 25%
14:00 +23°C° 0 mm 1 m/s 763 mmHg 24%
15:00 +23°C° 0 mm 1 m/s 763 mmHg 23%
16:00 +22°C° 0 mm 1 m/s 763 mmHg 26%
17:00 +21°C° 0 mm 1 m/s 763 mmHg 29%
18:00 +20°C° 0 mm 1 m/s 763 mmHg 32%
19:00 +19°C° 0 mm 1 m/s 763 mmHg 34%
20:00 +17°C° 0 mm 2 m/s 763 mmHg 37%
21:00 +17°C° 0 mm 2 m/s 764 mmHg 40%
22:00 +16°C° 0 mm 2 m/s 764 mmHg 43%
23:00 +16°C° 0 mm 2 m/s 764 mmHg 45%
Mostrar mais

Necessitamos do seu Consentimento

A Meteoprog e os seus Fornecedores de Serviços podem armazenar e aceder a dados pessoais como cookies, identificadores do dispositivo ou outras tecnologias semelhantes existentes no seu dispositivo e processar estes dados para personalizar conteúdos e anúncios, assim como funcionalidades nas redes sociais e análise de tráfego.

  • Armazenar e/ou aceder a informações no seu dispositivo

    Os cookies, identificadores do dispositivo ou outras informações podem ser armazenados ou acedidos no seu dispositivo, para os fins acima indicados.

  • Anúncios e conteúdos personalizados, medição de anúncios e conteúdos, dados sobre o público-alvo e desenvolvimento de produtos

    Os anúncios e os conteúdos podem ser personalizados com base num perfil. Podem ser adicionados dados adicionais para uma maior personalização dos anúncios e dos conteúdos. A eficácia dos anúncios e dos conteúdos pode ser medida. Podem ser obtidas informações sobre o público que visualizou os anúncios e os conteúdos. Estes dados podem ser usados para desenvolver ou melhorar sistemas, softwares ou a experiência do utilizador.

Ao clicar em "Eu concordo”, permitirá o uso de cookies, identificadores do dispositivo e web beacons mencionados ou outras tecnologias semelhantes. As configurações do navegador do seu dispositivo podem ser alteradas.

Para certos fins, podem ser invocados interesses legítimos ao invés de consentimento. Pode ler mais informação sobre este assunto na nossa Política de Privacidade e Cookies.